Simultaneous Nadir Overpasses (SNOs) Predictions

Prediction of SNOs between METOP-B and NOAA-19 Satellite Orbit:

Table of predicted SNOs for the next 14.0 days since TLE Epoch: 8/1/2014
Index Date (METOP-B) Time (METOP-B) Lat,Lon (METOP-B) SZA (METOP-B ) Date (NOAA-19) Time (NOAA-19) Lat,Lon (NOAA-19) SZA (NOAA-19 ) Distance(km) Time Diff (sec)
1 08/04/2014 02:47:11 74.42, 134.00 57.14 08/04/2014 02:45:59 74.40, 132.80 57.17 35.78 72
2 08/04/2014 03:37:59 -74.13, -59.40 123.12 08/04/2014 03:37:00 -74.15, -59.30 123.10 3.32 59
3 08/04/2014 04:28:38 74.15, 107.98 56.91 08/04/2014 04:27:57 74.13, 107.99 56.90 1.83 41
4 08/04/2014 05:19:21 -74.11, -84.79 123.12 08/04/2014 05:19:03 -74.12, -84.75 123.11 1.60 18
5 08/04/2014 06:10:00 74.13, 82.59 56.91 08/04/2014 06:10:00 74.11, 82.55 56.89 2.66 0
6 08/04/2014 07:00:43 -74.09,-110.18 123.12 08/04/2014 07:01:06 -74.10,-110.20 123.12 0.80 23
7 08/04/2014 07:51:23 74.06, 57.08 56.87 08/04/2014 07:52:03 74.08, 57.10 56.88 2.77 40
8 08/04/2014 08:42:05 -74.07,-135.57 123.12 08/04/2014 08:43:09 -74.07,-135.65 123.12 2.34 64
9 08/04/2014 09:32:50 73.79, 31.09 56.64 08/04/2014 09:34:01 73.81, 32.26 56.61 36.57 71
10 08/14/2014 09:25:37 74.40, 34.34 60.07 08/14/2014 09:24:25 74.40, 33.32 60.11 30.54 72
11 08/14/2014 10:16:24 -74.19,-158.89 120.12 08/14/2014 10:15:26 -74.17,-158.86 120.13 1.63 58
12 08/14/2014 11:07:03 74.19, 8.44 59.89 08/14/2014 11:06:24 74.18, 8.38 59.89 1.97 39
13 08/14/2014 11:57:46 -74.17, 175.72 120.12 08/14/2014 11:57:29 -74.15, 175.69 120.13 1.84 17
14 08/14/2014 12:48:25 74.16, -16.95 59.89 08/14/2014 12:48:27 74.16, -17.07 59.89 3.73 2
15 08/14/2014 13:39:07 -74.14, 150.32 120.12 08/14/2014 13:39:31 -74.13, 150.24 120.14 3.26 24
16 08/14/2014 14:29:47 74.09, -42.47 59.85 08/14/2014 14:30:28 74.09, -42.40 59.83 2.29 41
17 08/14/2014 15:20:30 -74.07, 124.81 120.16 08/14/2014 15:21:34 -74.10, 124.79 120.14 3.20 64
18 08/14/2014 16:11:15 73.77, -68.58 59.58 08/14/2014 16:12:26 73.82, -67.23 59.57 41.95 71




NCC Satellite Simultaneous Nadir Overpasses (SNOs) Prediction Service
